| time (UTC) | temp C | wind direction | speed KPH | gust KPH | rain 1hr cm | rain 24hr cm | rain mn cm | humidity % | barometer mb |
| 20260902150558 | 28 | 314 | 3.2 | 4.8 | 0.00 | 0.00 | 0.00 | 35 | 1018.3 |
| 20260902150107 | 28 | 89 | 0.0 | 6.4 | 0.00 | 0.00 | 0.00 | 35 | 1018.2 |
| 20260902145558 | 28 | 224 | 4.8 | 6.4 | 0.00 | 0.00 | 0.00 | 35 | 1018.3 |
| 20260902145058 | 28 | 281 | 0.0 | 4.8 | 0.00 | 0.00 | 0.00 | 36 | 1018.3 |
| 20260902144558 | 29 | 50 | 0.0 | 4.8 | 0.00 | 0.00 | 0.00 | 34 | 1018.2 |
| 20260902144058 | 29 | 309 | 3.2 | 8.0 | 0.00 | 0.00 | 0.00 | 34 | 1018.4 |
| 20260902143559 | 28 | 257 | 3.2 | 8.0 | 0.00 | 0.00 | 0.00 | 35 | 1018.5 |
| 20260902143059 | 28 | 228 | 1.6 | 6.4 | 0.00 | 0.00 | 0.00 | 35 | 1018.4 |
| 20260902142559 | 28 | 285 | 3.2 | 8.0 | 0.00 | 0.00 | 0.00 | 35 | 1018.5 |
| 20260902141558 | 27 | 235 | 3.2 | 6.4 | 0.00 | 0.00 | 0.00 | 36 | 1018.7 |
| 20260902141059 | 27 | 99 | 4.8 | 4.8 | 0.00 | 0.00 | 0.00 | 37 | 1018.7 |
| 20260902140559 | 27 | 205 | 0.0 | 6.4 | 0.00 | 0.00 | 0.00 | 36 | 1018.8 |
| 20260902140110 | 27 | 235 | 0.0 | 6.4 | 0.00 | 0.00 | 0.00 | 36 | 1018.6 |
| 20260902135558 | 27 | 221 | 1.6 | 6.4 | 0.00 | 0.00 | 0.00 | 36 | 1018.8 |
| 20260902135059 | 27 | 198 | 3.2 | 6.4 | 0.00 | 0.00 | 0.00 | 36 | 1018.7 |
| 20260902134558 | 27 | 169 | 3.2 | 6.4 | 0.00 | 0.00 | 0.00 | 36 | 1018.8 |
| 20260902134059 | 27 | 185 | 6.4 | 6.4 | 0.00 | 0.00 | 0.00 | 36 | 1018.9 |
| 20260902133559 | 28 | 9 | 0.0 | 4.8 | 0.00 | 0.00 | 0.00 | 34 | 1018.8 |
| 20260902133058 | 29 | 75 | 0.0 | 4.8 | 0.00 | 0.00 | 0.00 | 34 | 1018.8 |
| 20260902132558 | 29 | 234 | 1.6 | 9.7 | 0.00 | 0.00 | 0.00 | 34 | 1019.1 |
| 20260902131058 | 29 | 252 | 3.2 | 9.7 | 0.00 | 0.00 | 0.00 | 35 | 1019.2 |
| 20260902130558 | 28 | 204 | 1.6 | 9.7 | 0.00 | 0.00 | 0.00 | 34 | 1019.1 |
| 20260902125559 | 28 | 230 | 8.0 | 9.7 | 0.00 | 0.00 | 0.00 | 34 | 1019.1 |
| 20260902124058 | 29 | 14 | 3.2 | 9.7 | 0.00 | 0.00 | 0.00 | 35 | 1019.5 |
| 20260902123559 | 29 | 351 | 0.0 | 9.7 | 0.00 | 0.00 | 0.00 | 35 | 1019.4 |
| 20260902123058 | 30 | 282 | 3.2 | 9.7 | 0.00 | 0.00 | 0.00 | 33 | 1019.4 |
| 20260902122059 | 29 | 104 | 3.2 | 9.7 | 0.00 | 0.00 | 0.00 | 34 | 1019.4 |
| 20260902121559 | 30 | 336 | 1.6 | 16.1 | 0.00 | 0.00 | 0.00 | 33 | 1019.6 |
| 20260902121058 | 29 | 201 | 6.4 | 25.7 | 0.00 | 0.00 | 0.00 | 34 | 1019.5 |
| 20260902120558 | 30 | 213 | 4.8 | 25.7 | 0.00 | 0.00 | 0.00 | 33 | 1019.7 |
| 20260902115558 | 29 | 354 | 3.2 | 9.7 | 0.00 | 0.00 | 0.00 | 35 | 1019.6 |
| 20260902115059 | 29 | 258 | 4.8 | 14.5 | 0.00 | 0.00 | 0.00 | 35 | 1019.7 |
| 20260902114559 | 28 | 268 | 1.6 | 17.7 | 0.00 | 0.00 | 0.00 | 37 | 1019.9 |
| 20260902113559 | 27 | 42 | 3.2 | 16.1 | 0.00 | 0.00 | 0.00 | 37 | 1020.1 |
| 20260902113059 | 29 | 224 | 4.8 | 8.0 | 0.00 | 0.00 | 0.00 | 34 | 1020.0 |
| 20260902112558 | 29 | 268 | 3.2 | 9.7 | 0.00 | 0.00 | 0.00 | 34 | 1020.0 |
| 20260902112058 | 29 | 340 | 3.2 | 9.7 | 0.00 | 0.00 | 0.00 | 35 | 1019.9 |
| 20260902111559 | 28 | 230 | 3.2 | 14.5 | 0.00 | 0.00 | 0.00 | 35 | 1020.0 |
| 20260902111058 | 29 | 247 | 4.8 | 14.5 | 0.00 | 0.00 | 0.00 | 35 | 1020.4 |
| 20260902110600 | 28 | 228 | 3.2 | 12.9 | 0.00 | 0.00 | 0.00 | 35 | 1020.1 |
| 20260902110111 | 29 | 229 | 6.4 | 17.7 | 0.00 | 0.00 | 0.00 | 33 | 1020.2 |
| 20260902105059 | 27 | 157 | 4.8 | 14.5 | 0.00 | 0.00 | 0.00 | 38 | 1020.1 |
| 20260902104559 | 27 | 80 | 8.0 | 12.9 | 0.00 | 0.00 | 0.00 | 38 | 1020.0 |
| 20260902104059 | 28 | 192 | 4.8 | 8.0 | 0.00 | 0.00 | 0.00 | 38 | 1020.5 |
| 20260902103559 | 28 | 111 | 0.0 | 6.4 | 0.00 | 0.00 | 0.00 | 38 | 1020.4 |
| 20260902103059 | 28 | 220 | 6.4 | 6.4 | 0.00 | 0.00 | 0.00 | 35 | 1020.5 |
| 20260902102558 | 28 | 141 | 3.2 | 6.4 | 0.00 | 0.00 | 0.00 | 38 | 1020.5 |
| 20260902102059 | 27 | 208 | 0.0 | 8.0 | 0.00 | 0.00 | 0.00 | 38 | 1020.7 |
| 20260902101558 | 27 | 185 | 3.2 | 8.0 | 0.00 | 0.00 | 0.00 | 38 | 1020.6 |
| 20260902101059 | 27 | 45 | 3.2 | 9.7 | 0.00 | 0.00 | 0.00 | 39 | 1020.7 |
| 20260902100558 | 27 | 358 | 8.0 | 9.7 | 0.00 | 0.00 | 0.00 | 40 | 1020.7 |
| 20260902100111 | 26 | 322 | 0.0 | 6.4 | 0.00 | 0.00 | 0.00 | 39 | 1021.0 |
| 20260902095558 | 26 | 218 | 0.0 | 6.4 | 0.00 | 0.00 | 0.00 | 40 | 1020.7 |
| 20260902094558 | 26 | 198 | 6.4 | 9.7 | 0.00 | 0.00 | 0.00 | 39 | 1021.0 |
| 20260902094059 | 26 | 180 | 3.2 | 9.7 | 0.00 | 0.00 | 0.00 | 40 | 1021.1 |
| 20260902093558 | 26 | 233 | 6.4 | 11.3 | 0.00 | 0.00 | 0.00 | 40 | 1021.3 |
| 20260902093058 | 25 | 89 | 0.0 | 11.3 | 0.00 | 0.00 | 0.00 | 43 | 1021.0 |
| 20260902092059 | 26 | 224 | 1.6 | 4.8 | 0.00 | 0.00 | 0.00 | 40 | 1021.4 |
| 20260902091558 | 25 | 180 | 4.8 | 4.8 | 0.00 | 0.00 | 0.00 | 42 | 1021.4 |
| 20260902090558 | 25 | 167 | 1.6 | 6.4 | 0.00 | 0.00 | 0.00 | 43 | 1021.4 |
| 20260902090112 | 24 | 104 | 0.0 | 6.4 | 0.00 | 0.00 | 0.00 | 43 | 1021.3 |
| 20260902085558 | 25 | 186 | 3.2 | 6.4 | 0.00 | 0.00 | 0.00 | 43 | 1021.3 |
| 20260902085058 | 25 | 236 | 0.0 | 6.4 | 0.00 | 0.00 | 0.00 | 44 | 1021.3 |
| 20260902082603 | 23 | 103 | 0.0 | 6.4 | 0.00 | 0.00 | 0.00 | 47 | 1021.7 |
| 20260902082059 | 23 | 119 | 3.2 | 6.4 | 0.00 | 0.00 | 0.00 | 48 | 1021.5 |
| 20260902081559 | 23 | 34 | 1.6 | 6.4 | 0.00 | 0.00 | 0.00 | 49 | 1021.5 |
| 20260902080559 | 22 | 225 | 1.6 | 8.0 | 0.00 | 0.00 | 0.00 | 52 | 1021.7 |
| 20260902080117 | 22 | 167 | 4.8 | 8.0 | 0.00 | 0.00 | 0.00 | 53 | 1021.6 |
| 20260902075558 | 23 | 150 | 3.2 | 6.4 | 0.00 | 0.00 | 0.00 | 50 | 1021.5 |
| 20260902075058 | 22 | 31 | 1.6 | 6.4 | 0.00 | 0.00 | 0.00 | 53 | 1021.6 |
| 20260902074558 | 21 | 114 | 1.6 | 4.8 | 0.00 | 0.00 | 0.00 | 52 | 1021.6 |
| 20260902074058 | 21 | 337 | 3.2 | 6.4 | 0.00 | 0.00 | 0.00 | 55 | 1021.2 |
| 20260902073558 | 20 | 214 | 1.6 | 6.4 | 0.00 | 0.00 | 0.00 | 55 | 1021.6 |
| 20260902073058 | 20 | 85 | 4.8 | 6.4 | 0.00 | 0.00 | 0.00 | 58 | 1021.5 |
| 20260902072558 | 20 | 107 | 1.6 | 6.4 | 0.00 | 0.00 | 0.00 | 59 | 1021.4 |
| 20260902072058 | 20 | 104 | 3.2 | 4.8 | 0.00 | 0.00 | 0.00 | 56 | 1021.4 |
| 20260902071558 | 20 | 44 | 0.0 | 3.2 | 0.00 | 0.00 | 0.00 | 58 | 1021.3 |
| 20260902071058 | 19 | 9 | 1.6 | 3.2 | 0.00 | 0.00 | 0.00 | 60 | 1021.4 |
| 20260902070558 | 19 | 3 | 0.0 | 3.2 | 0.00 | 0.00 | 0.00 | 60 | 1021.6 |
| 20260902070111 | 18 | 230 | 0.0 | 3.2 | 0.00 | 0.00 | 0.00 | 61 | 1021.3 |
| 20260902065558 | 18 | 37 | 0.0 | 3.2 | 0.00 | 0.00 | 0.00 | 64 | 1021.3 |
| 20260902064558 | 18 | 148 | 0.0 | 4.8 | 0.00 | 0.00 | 0.00 | 65 | 1021.4 |
| 20260902064058 | 18 | 3 | 3.2 | 4.8 | 0.00 | 0.00 | 0.00 | 64 | 1021.2 |
| 20260902063558 | 18 | 44 | 0.0 | 3.2 | 0.00 | 0.00 | 0.00 | 64 | 1021.2 |
| 20260902063058 | 18 | 66 | 0.0 | 3.2 | 0.00 | 0.00 | 0.00 | 64 | 1021.0 |
| 20260902062558 | 18 | 119 | 0.0 | 3.2 | 0.00 | 0.00 | 0.00 | 64 | 1020.9 |
| 20260902062059 | 17 | 41 | 0.0 | 3.2 | 0.00 | 0.00 | 0.00 | 66 | 1020.9 |
| 20260902061558 | 17 | 284 | 1.6 | 3.2 | 0.00 | 0.00 | 0.00 | 66 | 1021.3 |
| 20260902061057 | 17 | 89 | 0.0 | 4.8 | 0.00 | 0.00 | 0.00 | 69 | 1021.2 |
| 20260902060558 | 16 | 116 | 1.6 | 4.8 | 0.00 | 0.00 | 0.00 | 71 | 1021.2 |
| 20260902060107 | 16 | 98 | 1.6 | 3.2 | 0.00 | 0.00 | 0.00 | 72 | 1021.2 |
| 20260902055558 | 16 | 115 | 3.2 | 3.2 | 0.00 | 0.00 | 0.00 | 72 | 1021.0 |
| 20260902054058 | 15 | 23 | 1.6 | 3.2 | 0.00 | 0.00 | 0.00 | 77 | 1021.1 |
| 20260902053558 | 15 | 173 | 0.0 | 1.6 | 0.00 | 0.00 | 0.00 | 79 | 1021.1 |
| 20260902053058 | 14 | 62 | 0.0 | 1.6 | 0.00 | 0.00 | 0.00 | 80 | 1021.1 |
| 20260902052058 | 14 | 117 | 1.6 | 3.2 | 0.00 | 0.00 | 0.00 | 79 | 1021.0 |
| 20260902051058 | 14 | 36 | 0.0 | 3.2 | 0.00 | 0.00 | 0.00 | 79 | 1021.2 |
| 20260902050558 | 14 | 21 | 1.6 | 3.2 | 0.00 | 0.00 | 0.00 | 79 | 1020.9 |
| 20260902050110 | 13 | 28 | 1.6 | 3.2 | 0.00 | 0.00 | 0.00 | 80 | 1021.0 |
| 20260902045058 | 13 | 89 | 0.0 | 3.2 | 0.00 | 0.00 | 0.00 | 80 | 1021.0 |
| 20260902044558 | 13 | 34 | 0.0 | 3.2 | 0.00 | 0.00 | 0.00 | 80 | 1020.7 |
| 20260902044058 | 13 | 116 | 1.6 | 3.2 | 0.00 | 0.00 | 0.00 | 79 | 1021.0 |
| 20260902043058 | 13 | 89 | 0.0 | 3.2 | 0.00 | 0.00 | 0.00 | 79 | 1021.0 |
| 20260902042558 | 13 | 24 | 3.2 | 3.2 | 0.00 | 0.00 | 0.00 | 78 | 1020.9 |
| 20260902041558 | 13 | 19 | 0.0 | 3.2 | 0.00 | 0.00 | 0.00 | 79 | 1020.8 |
| 20260902041059 | 13 | 15 | 0.0 | 3.2 | 0.00 | 0.00 | 0.00 | 79 | 1020.8 |
| 20260902040558 | 13 | 119 | 0.0 | 4.8 | 0.00 | 0.00 | 0.00 | 79 | 1021.1 |
| 20260902040108 | 13 | 353 | 3.2 | 4.8 | 0.00 | 0.00 | 0.00 | 79 | 1020.8 |
| 20260902035558 | 13 | 27 | 3.2 | 3.2 | 0.00 | 0.00 | 0.00 | 78 | 1020.6 |
| 20260902035058 | 13 | 37 | 3.2 | 3.2 | 0.00 | 0.00 | 0.00 | 80 | 1020.8 |
| 20260902034558 | 13 | 59 | 0.0 | 3.2 | 0.00 | 0.00 | 0.00 | 81 | 1020.8 |
| 20260902034058 | 12 | 55 | 0.0 | 3.2 | 0.00 | 0.00 | 0.00 | 82 | 1020.8 |
| 20260902033558 | 12 | 39 | 0.0 | 3.2 | 0.00 | 0.00 | 0.00 | 82 | 1020.8 |
| 20260902033058 | 12 | 32 | 3.2 | 3.2 | 0.00 | 0.00 | 0.00 | 81 | 1020.9 |
| 20260902032558 | 12 | 51 | 0.0 | 3.2 | 0.00 | 0.00 | 0.00 | 81 | 1020.7 |
| 20260902032058 | 13 | 32 | 3.2 | 3.2 | 0.00 | 0.00 | 0.00 | 81 | 1020.7 |
| 20260902031558 | 13 | 73 | 1.6 | 3.2 | 0.00 | 0.00 | 0.00 | 79 | 1020.8 |
| 20260902031058 | 13 | 49 | 1.6 | 3.2 | 0.00 | 0.00 | 0.00 | 79 | 1020.8 |
| 20260902030558 | 13 | 22 | 3.2 | 3.2 | 0.00 | 0.00 | 0.00 | 80 | 1020.8 |
| 20260902030111 | 13 | 5 | 1.6 | 3.2 | 0.00 | 0.00 | 0.00 | 80 | 1020.7 |
| 20260902025558 | 13 | 36 | 1.6 | 3.2 | 0.00 | 0.00 | 0.00 | 81 | 1020.7 |
| 20260902025058 | 13 | 5 | 0.0 | 3.2 | 0.00 | 0.00 | 0.00 | 80 | 1020.8 |
| 20260902024058 | 13 | 120 | 1.6 | 3.2 | 0.00 | 0.00 | 0.00 | 80 | 1020.8 |
| 20260902023058 | 13 | 147 | 0.0 | 3.2 | 0.00 | 0.00 | 0.00 | 80 | 1020.7 |
| 20260902022558 | 13 | 141 | 0.0 | 3.2 | 0.00 | 0.00 | 0.00 | 80 | 1020.3 |
| 20260902022058 | 13 | 68 | 1.6 | 3.2 | 0.00 | 0.00 | 0.00 | 80 | 1020.6 |
| 20260902021557 | 13 | 31 | 3.2 | 3.2 | 0.00 | 0.00 | 0.00 | 80 | 1020.8 |
| 20260902021058 | 13 | 34 | 0.0 | 3.2 | 0.00 | 0.00 | 0.00 | 80 | 1020.7 |
| 20260902020557 | 13 | 62 | 0.0 | 3.2 | 0.00 | 0.00 | 0.00 | 80 | 1020.5 |
| 20260902020111 | 13 | 44 | 0.0 | 3.2 | 0.00 | 0.00 | 0.00 | 81 | 1020.6 |
| 20260902015558 | 13 | 20 | 3.2 | 3.2 | 0.00 | 0.00 | 0.00 | 81 | 1020.8 |
| 20260902015058 | 13 | 66 | 0.0 | 3.2 | 0.00 | 0.00 | 0.00 | 81 | 1020.8 |
| 20260902014056 | 13 | 30 | 0.0 | 3.2 | 0.00 | 0.00 | 0.00 | 80 | 1020.8 |
| 20260902013555 | 13 | 63 | 0.0 | 3.2 | 0.00 | 0.00 | 0.00 | 80 | 1020.8 |
| 20260902013056 | 13 | 44 | 0.0 | 1.6 | 0.00 | 0.00 | 0.00 | 80 | 1020.9 |
| 20260902012555 | 13 | 50 | 0.0 | 3.2 | 0.00 | 0.00 | 0.00 | 79 | 1020.9 |
| 20260902012056 | 13 | 66 | 0.0 | 3.2 | 0.00 | 0.00 | 0.00 | 79 | 1020.9 |
| 20260902011055 | 13 | 91 | 0.0 | 3.2 | 0.00 | 0.00 | 0.00 | 78 | 1020.9 |
| 20260902010556 | 13 | 142 | 0.0 | 3.2 | 0.00 | 0.00 | 0.00 | 78 | 1020.8 |
| 20260902010109 | 13 | 243 | 0.0 | 3.2 | 0.00 | 0.00 | 0.00 | 77 | 1020.9 |
| 20260902005556 | 13 | 35 | 1.6 | 3.2 | 0.00 | 0.00 | 0.00 | 77 | 1020.8 |
| 20260902005056 | 13 | 23 | 3.2 | 3.2 | 0.00 | 0.00 | 0.00 | 76 | 1021.0 |
| 20260902004555 | 13 | 44 | 0.0 | 1.6 | 0.00 | 0.00 | 0.00 | 77 | 1020.9 |
| 20260902004056 | 13 | 34 | 0.0 | 3.2 | 0.00 | 0.00 | 0.00 | 77 | 1021.0 |
| 20260902003555 | 14 | 44 | 0.0 | 3.2 | 0.00 | 0.00 | 0.00 | 76 | 1020.8 |
| 20260902003056 | 14 | 33 | 3.2 | 3.2 | 0.00 | 0.00 | 0.00 | 77 | 1021.0 |
| 20260902002556 | 14 | 69 | 0.0 | 3.2 | 0.00 | 0.00 | 0.00 | 77 | 1020.9 |
| 20260902002056 | 14 | 27 | 0.0 | 3.2 | 0.00 | 0.00 | 0.00 | 77 | 1020.9 |
| 20260902001556 | 14 | 25 | 0.0 | 3.2 | 0.00 | 0.00 | 0.00 | 77 | 1020.9 |
| 20260902001056 | 14 | 28 | 1.6 | 3.2 | 0.00 | 0.00 | 0.00 | 77 | 1021.0 |
| 20260902000556 | 14 | 35 | 1.6 | 3.2 | 0.00 | 0.00 | 0.00 | 78 | 1021.0 |
| 20260902000108 | 14 | 97 | 3.2 | 3.2 | 0.00 | 0.00 | 0.00 | 77 | 1020.8 |
| 20260901235556 | 14 | 48 | 0.0 | 1.6 | 0.00 | 0.00 | 0.00 | 77 | 1021.0 |
| 20260901235057 | 14 | 124 | 0.0 | 1.6 | 0.00 | 0.00 | 0.00 | 77 | 1020.9 |
| 20260901234058 | 14 | 151 | 0.0 | 3.2 | 0.00 | 0.00 | 0.00 | 76 | 1020.7 |
| 20260901233556 | 14 | 131 | 0.0 | 3.2 | 0.00 | 0.00 | 0.00 | 76 | 1021.1 |
| 20260901233057 | 14 | 44 | 0.0 | 3.2 | 0.00 | 0.00 | 0.00 | 77 | 1021.0 |
| 20260901232556 | 14 | 37 | 0.0 | 3.2 | 0.00 | 0.00 | 0.00 | 77 | 1021.0 |
| 20260901232056 | 14 | 25 | 0.0 | 3.2 | 0.00 | 0.00 | 0.00 | 76 | 1021.0 |
| 20260901231556 | 14 | 190 | 1.6 | 3.2 | 0.00 | 0.00 | 0.00 | 76 | 1021.3 |
| 20260901231056 | 14 | 29 | 1.6 | 3.2 | 0.00 | 0.00 | 0.00 | 77 | 1021.1 |
| 20260901230556 | 14 | 44 | 0.0 | 3.2 | 0.00 | 0.00 | 0.00 | 76 | 1020.9 |
| 20260901225557 | 14 | 50 | 0.0 | 3.2 | 0.00 | 0.00 | 0.00 | 77 | 1021.2 |
| 20260901225057 | 14 | 29 | 0.0 | 3.2 | 0.00 | 0.00 | 0.00 | 76 | 1021.0 |
| 20260901224557 | 14 | 142 | 0.0 | 3.2 | 0.00 | 0.00 | 0.00 | 76 | 1021.1 |
| 20260901224056 | 14 | 30 | 1.6 | 3.2 | 0.00 | 0.00 | 0.00 | 76 | 1021.3 |
| 20260901223557 | 14 | 57 | 0.0 | 3.2 | 0.00 | 0.00 | 0.00 | 77 | 1021.2 |
| 20260901223056 | 14 | 24 | 1.6 | 3.2 | 0.00 | 0.00 | 0.00 | 76 | 1021.2 |
| 20260901222556 | 14 | 44 | 0.0 | 3.2 | 0.00 | 0.00 | 0.00 | 78 | 1021.2 |
| 20260901222056 | 13 | 33 | 0.0 | 0.0 | 0.00 | 0.00 | 0.00 | 76 | 1021.1 |
| 20260901221556 | 14 | 117 | 0.0 | 1.6 | 0.00 | 0.00 | 0.00 | 76 | 1021.1 |
| 20260901220556 | 14 | 135 | 0.0 | 0.0 | 0.00 | 0.00 | 0.00 | 74 | 1021.1 |
| 20260901220109 | 14 | 117 | 0.0 | 0.0 | 0.00 | 0.00 | 0.00 | 74 | 1021.2 |
| 20260901215557 | 14 | 129 | 0.0 | 0.0 | 0.00 | 0.00 | 0.00 | 74 | 1021.1 |
| 20260901215057 | 14 | 50 | 0.0 | 0.0 | 0.00 | 0.00 | 0.00 | 73 | 1020.9 |
| 20260901214056 | 15 | 135 | 0.0 | 3.2 | 0.00 | 0.00 | 0.00 | 72 | 1020.9 |
| 20260901213057 | 15 | 162 | 0.0 | 3.2 | 0.00 | 0.00 | 0.00 | 71 | 1020.8 |
| 20260901212556 | 15 | 101 | 1.6 | 3.2 | 0.00 | 0.00 | 0.00 | 71 | 1020.7 |
| 20260901212056 | 15 | 131 | 0.0 | 1.6 | 0.00 | 0.00 | 0.00 | 70 | 1020.7 |
| 20260901211556 | 15 | 135 | 0.0 | 1.6 | 0.00 | 0.00 | 0.00 | 70 | 1020.8 |
| 20260901211056 | 15 | 89 | 0.0 | 3.2 | 0.00 | 0.00 | 0.00 | 70 | 1020.7 |
| 20260901210556 | 15 | 22 | 0.0 | 3.2 | 0.00 | 0.00 | 0.00 | 69 | 1020.7 |
| 20260901210109 | 15 | 40 | 0.0 | 3.2 | 0.00 | 0.00 | 0.00 | 69 | 1020.7 |
| 20260901205557 | 15 | 31 | 1.6 | 3.2 | 0.00 | 0.00 | 0.00 | 69 | 1020.8 |
| 20260901204556 | 16 | 23 | 1.6 | 3.2 | 0.00 | 0.03 | 0.00 | 68 | 1020.6 |
| 20260901204057 | 16 | 11 | 1.6 | 3.2 | 0.00 | 0.03 | 0.00 | 68 | 1020.5 |
| 20260901203556 | 16 | 24 | 0.0 | 1.6 | 0.00 | 0.03 | 0.00 | 69 | 1020.6 |
| 20260901203057 | 16 | 42 | 1.6 | 3.2 | 0.00 | 0.03 | 0.00 | 68 | 1020.8 |
| 20260901202556 | 16 | 35 | 0.0 | 3.2 | 0.00 | 0.03 | 0.00 | 68 | 1020.8 |
| 20260901202056 | 16 | 34 | 0.0 | 1.6 | 0.00 | 0.03 | 0.00 | 69 | 1020.5 |
| 20260901201556 | 16 | 32 | 0.0 | 1.6 | 0.00 | 0.03 | 0.00 | 67 | 1020.8 |
| 20260901201056 | 16 | 36 | 0.0 | 1.6 | 0.00 | 0.03 | 0.00 | 66 | 1020.5 |
| 20260901200109 | 17 | 37 | 0.0 | 4.8 | 0.00 | 0.03 | 0.00 | 64 | 1020.4 |
| 20260901195555 | 17 | 16 | 1.6 | 3.2 | 0.00 | 0.03 | 0.00 | 64 | 1020.5 |
| 20260901195056 | 17 | 23 | 0.0 | 3.2 | 0.00 | 0.03 | 0.00 | 64 | 1020.8 |
| 20260901194557 | 17 | 39 | 0.0 | 3.2 | 0.00 | 0.03 | 0.00 | 64 | 1020.7 |
| 20260901194056 | 17 | 44 | 0.0 | 3.2 | 0.00 | 0.03 | 0.00 | 64 | 1020.7 |
| 20260901193556 | 17 | 38 | 0.0 | 3.2 | 0.00 | 0.03 | 0.00 | 63 | 1020.3 |
| 20260901193056 | 17 | 13 | 0.0 | 3.2 | 0.00 | 0.03 | 0.00 | 63 | 1020.5 |
| 20260901192556 | 17 | 17 | 1.6 | 3.2 | 0.00 | 0.03 | 0.00 | 64 | 1020.2 |
| 20260901192057 | 17 | 62 | 0.0 | 0.0 | 0.00 | 0.03 | 0.00 | 63 | 1020.5 |
| 20260901191555 | 17 | 44 | 0.0 | 0.0 | 0.00 | 0.03 | 0.00 | 62 | 1020.5 |
| 20260901191056 | 18 | 50 | 0.0 | 0.0 | 0.00 | 0.03 | 0.00 | 61 | 1020.5 |
| 20260901190556 | 18 | 44 | 0.0 | 0.0 | 0.00 | 0.03 | 0.00 | 60 | 1020.2 |
| 20260901190109 | 18 | 25 | 0.0 | 0.0 | 0.00 | 0.03 | 0.00 | 59 | 1020.2 |
| 20260901185556 | 18 | 25 | 0.0 | 1.6 | 0.00 | 0.03 | 0.00 | 57 | 1020.3 |
| 20260901185057 | 19 | 44 | 0.0 | 1.6 | 0.00 | 0.03 | 0.00 | 56 | 1020.4 |
| 20260901184556 | 19 | 48 | 0.0 | 1.6 | 0.00 | 0.03 | 0.00 | 56 | 1020.2 |
| 20260901184056 | 19 | 24 | 0.0 | 1.6 | 0.00 | 0.03 | 0.00 | 55 | 1020.0 |
| 20260901183057 | 20 | 6 | 0.0 | 3.2 | 0.00 | 0.03 | 0.00 | 53 | 1020.0 |
| 20260901182556 | 20 | 14 | 0.0 | 1.6 | 0.00 | 0.03 | 0.00 | 53 | 1019.9 |
| 20260901182056 | 20 | 25 | 0.0 | 1.6 | 0.00 | 0.03 | 0.00 | 51 | 1019.8 |
| 20260901181556 | 21 | 13 | 0.0 | 1.6 | 0.00 | 0.03 | 0.00 | 50 | 1019.7 |
| 20260901181056 | 21 | 354 | 0.0 | 4.8 | 0.00 | 0.03 | 0.00 | 49 | 1020.1 |
| 20260901180556 | 21 | 243 | 0.0 | 4.8 | 0.00 | 0.03 | 0.00 | 48 | 1019.6 |
| 20260901180109 | 21 | 13 | 0.0 | 3.2 | 0.00 | 0.03 | 0.00 | 48 | 1019.7 |
| 20260901175056 | 22 | 351 | 3.2 | 3.2 | 0.00 | 0.03 | 0.00 | 46 | 1019.5 |
| 20260901174556 | 22 | 5 | 0.0 | 4.8 | 0.00 | 0.03 | 0.00 | 46 | 1019.4 |
| 20260901173556 | 23 | 337 | 0.0 | 4.8 | 0.00 | 0.03 | 0.00 | 44 | 1019.2 |
| 20260901173056 | 23 | 8 | 3.2 | 4.8 | 0.00 | 0.03 | 0.00 | 43 | 1019.2 |
| 20260901172056 | 24 | 4 | 1.6 | 8.0 | 0.00 | 0.03 | 0.00 | 43 | 1019.2 |
| 20260901171109 | 24 | 1 | 3.2 | 6.4 | 0.00 | 0.03 | 0.00 | 42 | 1019.3 |
| 20260901170557 | 25 | 19 | 3.2 | 8.0 | 0.00 | 0.03 | 0.00 | 41 | 1019.1 |
| 20260901170109 | 25 | 260 | 1.6 | 8.0 | 0.00 | 0.03 | 0.00 | 41 | 1019.2 |
| 20260901165055 | 25 | 336 | 1.6 | 8.0 | 0.00 | 0.03 | 0.00 | 40 | 1018.9 |
| 20260901164556 | 25 | 351 | 1.6 | 8.0 | 0.00 | 0.03 | 0.00 | 40 | 1019.2 |
| 20260901164055 | 26 | 354 | 0.0 | 8.0 | 0.00 | 0.03 | 0.00 | 39 | 1019.2 |
| 20260901163056 | 26 | 342 | 6.4 | 12.9 | 0.00 | 0.03 | 0.00 | 39 | 1019.1 |
| 20260901162556 | 26 | 7 | 6.4 | 12.9 | 0.00 | 0.03 | 0.00 | 38 | 1019.1 |
| 20260901162057 | 26 | 349 | 3.2 | 9.7 | 0.00 | 0.03 | 0.00 | 39 | 1019.1 |
| 20260901161056 | 26 | 351 | 3.2 | 8.0 | 0.00 | 0.03 | 0.00 | 38 | 1019.2 |
| 20260901160556 | 26 | 278 | 4.8 | 11.3 | 0.00 | 0.03 | 0.00 | 39 | 1019.2 |
| 20260901160109 | 26 | 253 | 3.2 | 11.3 | 0.00 | 0.03 | 0.00 | 38 | 1019.1 |
| 20260901155056 | 27 | 245 | 3.2 | 12.9 | 0.00 | 0.03 | 0.00 | 36 | 1019.0 |
| 20260901154556 | 27 | 353 | 4.8 | 12.9 | 0.00 | 0.03 | 0.00 | 36 | 1019.3 |
| 20260901154056 | 27 | 230 | 0.0 | 9.7 | 0.00 | 0.03 | 0.00 | 37 | 1019.0 |
| 20260901153556 | 27 | 306 | 3.2 | 12.9 | 0.00 | 0.03 | 0.00 | 36 | 1019.1 |
| 20260901153056 | 27 | 336 | 3.2 | 12.9 | 0.00 | 0.03 | 0.00 | 37 | 1018.9 |
| 20260901152556 | 27 | 323 | 3.2 | 12.9 | 0.00 | 0.03 | 0.00 | 36 | 1019.3 |
| 20260901151556 | 27 | 268 | 4.8 | 9.7 | 0.00 | 0.03 | 0.00 | 36 | 1019.3 |
| 20260901151056 | 27 | 336 | 3.2 | 12.9 | 0.00 | 0.03 | 0.00 | 37 | 1019.1 |